{"data":{"norad_id":57243,"intl_designator":"2023-094AB","name":"STARLINK-6346","alt_names":[],"object_type":"PAYLOAD","status":"ACTIVE","operator":null,"country":"US","launch_date":"2023-07-07","launch_site_code":"AFWTR","launch_vehicle":null,"mission":null,"orbit_class":"UNKNOWN","rcs_meters":null,"size_class":null,"mass_kg":null,"dimensions":null,"purposes":["comms"],"wikipedia_slug":null,"has_3d_model":false,"image_url":null,"decayed_at":null,"tle_current":{"epoch":"2026-05-25T03:53:05.187840Z","epoch_age_seconds":61102,"freshness":"FRESH","line1":"1 57243U 23094AB  26145.16186560  .00000068  00000+0  12009-4 0  9999","line2":"2 57243  43.0032 308.1712 0001205 272.8461  87.2253 15.27576568158930","mean_motion":15.27576568,"eccentricity":0.0001205,"inclination_deg":43.0032,"raan_deg":308.1712,"arg_perigee_deg":272.8461,"mean_anomaly_deg":87.2253,"bstar":1.2009e-5,"rev_number":15893,"period_min":94.266960502369,"perigee_km":482.23259853864,"apogee_km":483.88614686446,"semimajor_km":6861.1963727015,"source":"CELESTRAK","updated_at":"2026-05-25T13:38:18.257271Z"}}}